User: anonymous   Login
Location: Ward Pound Ridge Reservation
(41.2500°N, 73.6000°W)
Time: 18:00:48
(UTC-04:00)
Language:

Envisat - Orbit

View from above orbital plane
View from above orbital plane
View from above satellite
View from above satellite

Ground track
Ground track

The orbit data is extracted from the following two-line orbital elements,

1 27386U 02009A   18174.51979986 -.00000011  00000-0  99137-5 0  9999
2 27386  98.1836 208.2824 0001255  94.7589  73.6514 14.37924404854432
Epoch (UTC): 23 June 2018 12:28:30
Eccentricity: 0.0001255
inclination: 98.1836°
perigee height: 764 km
apogee height: 766 km
right ascension of ascending node: 208.2824°
argument of perigee: 94.7589°
revolutions per day: 14.37924404
mean anomaly at epoch: 73.6514°
orbit number at epoch: 85443

The dashed part of the orbit path shows where the satellite is in the earth's shadow,  

DLR